Location: Hohenfelde
(53.8441°N, 9.6220°E)
Time: 11:39:11
(UTC+00:00)

USA 267 - Pass Details

Date: 14 July 2020
Orbit: 1102 x 1106 km, 123.0° (Epoch: 08 August)

Event Time Altitude Azimuth Distance (km) Brightness Sun altitude
Exits shadow 00:32:09 17° 203° (SSW) 2,450 4.4 -13.2°
Maximum altitude 00:34:44 22° 233° (SW) 2,213 4.4 -13.1°
Drops below altitude 10° 00:39:36 10° 282° (WNW) 2,965 5.5 -12.9°
Sets 00:42:47 0° 297° (WNW) 3,928 6.3 -12.8°
